Year,Month,Day,Hour,Minute,Value (Times are PST for temperature in C)
2018,03,25,00,00,3.10
2018,03,25,00,01,3.00
2018,03,25,00,02,3.00
2018,03,25,00,03,3.00
2018,03,25,00,04,2.90
2018,03,25,00,05,2.90
2018,03,25,00,06,2.90
2018,03,25,00,07,2.90
2018,03,25,00,08,2.90
2018,03,25,00,09,2.90
2018,03,25,00,10,2.90
2018,03,25,00,11,2.80
2018,03,25,00,12,2.80
2018,03,25,00,13,2.80
2018,03,25,00,14,2.80
2018,03,25,00,15,2.80
2018,03,25,00,16,2.70
2018,03,25,00,17,2.70
2018,03,25,00,18,2.70
2018,03,25,00,19,2.60
2018,03,25,00,20,2.60
2018,03,25,00,21,2.60
2018,03,25,00,22,2.50
2018,03,25,00,23,2.50
2018,03,25,00,24,2.50
2018,03,25,00,25,2.40
2018,03,25,00,26,2.40
2018,03,25,00,27,2.30
2018,03,25,00,28,2.30
2018,03,25,00,29,2.30
2018,03,25,00,30,2.30
2018,03,25,00,31,2.20
2018,03,25,00,32,2.20
2018,03,25,00,33,2.20
2018,03,25,00,34,2.20
2018,03,25,00,35,2.10
2018,03,25,00,36,2.10
2018,03,25,00,37,2.10
2018,03,25,00,38,2.10
2018,03,25,00,39,2.00
2018,03,25,00,40,2.00
2018,03,25,00,41,1.90
2018,03,25,00,42,1.90
2018,03,25,00,43,1.90
2018,03,25,00,44,1.90
2018,03,25,00,45,1.90
2018,03,25,00,46,1.90
2018,03,25,00,47,1.90
2018,03,25,00,48,1.90
2018,03,25,00,49,1.90
2018,03,25,00,50,1.90
2018,03,25,00,51,2.00
2018,03,25,00,52,2.00
2018,03,25,00,53,2.00
2018,03,25,00,54,2.10
2018,03,25,00,55,2.10
2018,03,25,00,56,2.10
2018,03,25,00,57,2.10
2018,03,25,00,58,2.10
2018,03,25,00,59,2.10
2018,03,25,01,00,2.10
2018,03,25,01,01,2.10
2018,03,25,01,02,2.10
2018,03,25,01,03,2.00
2018,03,25,01,04,2.00
2018,03,25,01,05,2.00
2018,03,25,01,06,2.00
2018,03,25,01,07,2.00
2018,03,25,01,08,2.00
2018,03,25,01,09,2.00
2018,03,25,01,10,2.00
2018,03,25,01,11,2.00
2018,03,25,01,12,2.00
2018,03,25,01,13,1.90
2018,03,25,01,14,1.90
2018,03,25,01,15,1.90
2018,03,25,01,16,1.90
2018,03,25,01,17,1.90
2018,03,25,01,18,1.90
2018,03,25,01,19,1.90
2018,03,25,01,20,1.90
2018,03,25,01,21,1.90
2018,03,25,01,22,1.90
2018,03,25,01,23,2.00
2018,03,25,01,24,2.00
2018,03,25,01,25,2.10
2018,03,25,01,26,2.10
2018,03,25,01,27,2.10
2018,03,25,01,28,2.10
2018,03,25,01,29,2.10
2018,03,25,01,30,2.10
2018,03,25,01,31,2.10
2018,03,25,01,32,2.10
2018,03,25,01,33,2.10
2018,03,25,01,34,2.10
2018,03,25,01,35,2.10
2018,03,25,01,36,2.10
2018,03,25,01,37,2.10
2018,03,25,01,38,2.10
2018,03,25,01,39,2.10
2018,03,25,01,40,2.10
2018,03,25,01,41,1.90
2018,03,25,01,42,1.80
2018,03,25,01,43,1.80
2018,03,25,01,44,1.80
2018,03,25,01,45,1.70
2018,03,25,01,46,1.60
2018,03,25,01,47,1.50
2018,03,25,01,48,1.40
2018,03,25,01,49,1.30
2018,03,25,01,50,1.30
2018,03,25,01,51,1.30
2018,03,25,01,52,1.30
2018,03,25,01,53,1.30
2018,03,25,01,54,1.20
2018,03,25,01,55,1.10
2018,03,25,01,56,1.10
2018,03,25,01,57,1.00
2018,03,25,01,58,1.00
2018,03,25,01,59,0.90
2018,03,25,02,00,0.90
2018,03,25,02,01,0.90
2018,03,25,02,02,0.80
2018,03,25,02,03,0.80
2018,03,25,02,04,0.80
2018,03,25,02,05,0.70
2018,03,25,02,06,0.70
2018,03,25,02,07,0.70
2018,03,25,02,08,0.70
2018,03,25,02,09,0.70
2018,03,25,02,10,0.60
2018,03,25,02,11,0.60
2018,03,25,02,12,0.60
2018,03,25,02,13,0.60
2018,03,25,02,14,0.60
2018,03,25,02,15,0.50
2018,03,25,02,16,0.50
2018,03,25,02,17,0.50
2018,03,25,02,18,0.50
2018,03,25,02,19,0.40
2018,03,25,02,20,0.40
2018,03,25,02,21,0.40
2018,03,25,02,22,0.40
2018,03,25,02,23,0.40
2018,03,25,02,24,0.30
2018,03,25,02,25,0.30
2018,03,25,02,26,0.30
2018,03,25,02,27,0.30
2018,03,25,02,28,0.30
2018,03,25,02,29,0.30
2018,03,25,02,30,0.30
2018,03,25,02,31,0.30
2018,03,25,02,32,0.30
2018,03,25,02,33,0.30
2018,03,25,02,34,0.30
2018,03,25,02,35,0.30
2018,03,25,02,36,0.30
2018,03,25,02,37,0.30
2018,03,25,02,38,0.30
2018,03,25,02,39,0.30
2018,03,25,02,40,0.30
2018,03,25,02,41,0.20
2018,03,25,02,42,0.20
2018,03,25,02,43,0.20
2018,03,25,02,44,0.20
2018,03,25,02,45,0.20
2018,03,25,02,46,0.20
2018,03,25,02,47,0.20
2018,03,25,02,48,0.20
2018,03,25,02,49,0.20
2018,03,25,02,50,0.20
2018,03,25,02,51,0.20
2018,03,25,02,52,0.20
2018,03,25,02,53,0.20
2018,03,25,02,54,0.20
2018,03,25,02,55,0.20
2018,03,25,02,56,0.20
2018,03,25,02,57,0.20
2018,03,25,02,58,0.20
2018,03,25,02,59,0.20
2018,03,25,03,00,0.20
2018,03,25,03,01,0.20
2018,03,25,03,02,0.20
2018,03,25,03,03,0.20
2018,03,25,03,04,0.20
2018,03,25,03,05,0.20
2018,03,25,03,06,0.20
2018,03,25,03,07,0.20
2018,03,25,03,08,0.20
2018,03,25,03,09,0.20
2018,03,25,03,10,0.20
2018,03,25,03,11,0.20
2018,03,25,03,12,0.20
2018,03,25,03,13,0.20
2018,03,25,03,14,0.20
2018,03,25,03,15,0.20
2018,03,25,03,16,0.30
2018,03,25,03,17,0.30
2018,03,25,03,18,0.30
2018,03,25,03,19,0.30
2018,03,25,03,20,0.30
2018,03,25,03,21,0.30
2018,03,25,03,22,0.30
2018,03,25,03,23,0.30
2018,03,25,03,24,0.30
2018,03,25,03,25,0.30
2018,03,25,03,26,0.30
2018,03,25,03,27,0.30
2018,03,25,03,28,0.20
2018,03,25,03,29,0.20
2018,03,25,03,30,0.20
2018,03,25,03,31,0.20
2018,03,25,03,32,0.20
2018,03,25,03,33,0.20
2018,03,25,03,34,0.10
2018,03,25,03,35,0.10
2018,03,25,03,36,0.10
2018,03,25,03,37,0.10
2018,03,25,03,38,0.00
2018,03,25,03,39,0.00
2018,03,25,03,40,0.00
2018,03,25,03,41,-0.10
2018,03,25,03,42,-0.10
2018,03,25,03,43,-0.10
2018,03,25,03,44,-0.10
2018,03,25,03,45,-0.20
2018,03,25,03,46,-0.20
2018,03,25,03,47,-0.20
2018,03,25,03,48,-0.20
2018,03,25,03,49,-0.20
2018,03,25,03,50,-0.30
2018,03,25,03,51,-0.30
2018,03,25,03,52,-0.30
2018,03,25,03,53,-0.30
2018,03,25,03,54,-0.30
2018,03,25,03,55,-0.30
2018,03,25,03,56,-0.30
2018,03,25,03,57,-0.30
2018,03,25,03,58,-0.40
2018,03,25,03,59,-0.40
2018,03,25,04,00,-0.40
2018,03,25,04,01,-0.40
2018,03,25,04,02,-0.40
2018,03,25,04,03,-0.40
2018,03,25,04,04,-0.40
2018,03,25,04,05,-0.40
2018,03,25,04,06,-0.40
2018,03,25,04,07,-0.50
2018,03,25,04,08,-0.50
2018,03,25,04,09,-0.50
2018,03,25,04,10,-0.50
2018,03,25,04,11,-0.50
2018,03,25,04,12,-0.50
2018,03,25,04,13,-0.50
2018,03,25,04,14,-0.60
2018,03,25,04,15,-0.60
2018,03,25,04,16,-0.60
2018,03,25,04,17,-0.60
2018,03,25,04,18,-0.60
2018,03,25,04,19,-0.60
2018,03,25,04,20,-0.60
2018,03,25,04,21,-0.60
2018,03,25,04,22,-0.60
2018,03,25,04,23,-0.60
2018,03,25,04,24,-0.60
2018,03,25,04,25,-0.60
2018,03,25,04,26,-0.60
2018,03,25,04,27,-0.60
2018,03,25,04,28,-0.50
2018,03,25,04,29,-0.50
2018,03,25,04,30,-0.50
2018,03,25,04,31,-0.50
2018,03,25,04,32,-0.50
2018,03,25,04,33,-0.50
2018,03,25,04,34,-0.50
2018,03,25,04,35,-0.50
2018,03,25,04,36,-0.40
2018,03,25,04,37,-0.40
2018,03,25,04,38,-0.40
2018,03,25,04,39,-0.40
2018,03,25,04,40,-0.40
2018,03,25,04,41,-0.40
2018,03,25,04,42,-0.40
2018,03,25,04,43,-0.40
2018,03,25,04,44,-0.40
2018,03,25,04,45,-0.40
2018,03,25,04,46,-0.30
2018,03,25,04,47,-0.30
2018,03,25,04,48,-0.30
2018,03,25,04,49,-0.30
2018,03,25,04,50,-0.30
2018,03,25,04,51,-0.30
2018,03,25,04,52,-0.30
2018,03,25,04,53,-0.30
2018,03,25,04,54,-0.20
2018,03,25,04,55,-0.20
2018,03,25,04,56,-0.20
2018,03,25,04,57,-0.20
2018,03,25,04,58,-0.20
2018,03,25,04,59,-0.30
2018,03,25,05,00,-0.30
2018,03,25,05,01,-0.30
2018,03,25,05,02,-0.30
2018,03,25,05,03,-0.30
2018,03,25,05,04,-0.30
2018,03,25,05,05,-0.30
2018,03,25,05,06,-0.20
2018,03,25,05,07,-0.20
2018,03,25,05,08,-0.20
2018,03,25,05,09,-0.10
2018,03,25,05,10,-0.10
2018,03,25,05,11,-0.10
2018,03,25,05,12,-0.10
2018,03,25,05,13,-0.10
2018,03,25,05,14,-0.10
2018,03,25,05,15,-0.10
2018,03,25,05,16,-0.10
2018,03,25,05,17,-0.10
2018,03,25,05,18,-0.20
2018,03,25,05,19,-0.20
2018,03,25,05,20,-0.20
2018,03,25,05,21,-0.20
2018,03,25,05,22,-0.20
2018,03,25,05,23,-0.30
2018,03,25,05,24,-0.30
2018,03,25,05,25,-0.30
2018,03,25,05,26,-0.30
2018,03,25,05,27,-0.30
2018,03,25,05,28,-0.30
2018,03,25,05,29,-0.30
2018,03,25,05,30,-0.30
2018,03,25,05,31,-0.30
2018,03,25,05,32,-0.30
2018,03,25,05,33,-0.30
2018,03,25,05,34,-0.30
2018,03,25,05,35,-0.30
2018,03,25,05,36,-0.30
2018,03,25,05,37,-0.30
2018,03,25,05,38,-0.30
2018,03,25,05,39,-0.30
2018,03,25,05,40,-0.30
2018,03,25,05,41,-0.30
2018,03,25,05,42,-0.30
2018,03,25,05,43,-0.30
2018,03,25,05,44,-0.40
2018,03,25,05,45,-0.40
2018,03,25,05,46,-0.40
2018,03,25,05,47,-0.40
2018,03,25,05,48,-0.40
2018,03,25,05,49,-0.50
2018,03,25,05,50,-0.50
2018,03,25,05,51,-0.50
2018,03,25,05,52,-0.50
2018,03,25,05,53,-0.50
2018,03,25,05,54,-0.50
2018,03,25,05,55,-0.50
2018,03,25,05,56,-0.60
2018,03,25,05,57,-0.60
2018,03,25,05,58,-0.60
2018,03,25,05,59,-0.60
2018,03,25,06,00,-0.60
2018,03,25,06,01,-0.60
2018,03,25,06,02,-0.60
2018,03,25,06,03,-0.60
2018,03,25,06,04,-0.60
2018,03,25,06,05,-0.60
2018,03,25,06,06,-0.60
2018,03,25,06,07,-0.60
2018,03,25,06,08,-0.60
2018,03,25,06,09,-0.60
2018,03,25,06,10,-0.60
2018,03,25,06,11,-0.60
2018,03,25,06,12,-0.60
2018,03,25,06,13,-0.60
2018,03,25,06,14,-0.60
2018,03,25,06,15,-0.60
2018,03,25,06,16,-0.60
2018,03,25,06,17,-0.60
2018,03,25,06,18,-0.60
2018,03,25,06,19,-0.60
2018,03,25,06,20,-0.60
2018,03,25,06,21,-0.60
2018,03,25,06,22,-0.60
2018,03,25,06,23,-0.60
2018,03,25,06,24,-0.50
2018,03,25,06,25,-0.50
2018,03,25,06,26,-0.50
2018,03,25,06,27,-0.40
2018,03,25,06,28,-0.40
2018,03,25,06,29,-0.30
2018,03,25,06,30,-0.30
2018,03,25,06,31,-0.20
2018,03,25,06,32,-0.20
2018,03,25,06,33,-0.20
2018,03,25,06,34,-0.20
2018,03,25,06,35,-0.20
2018,03,25,06,36,-0.20
2018,03,25,06,37,-0.20
2018,03,25,06,38,-0.20
2018,03,25,06,39,-0.20
2018,03,25,06,40,-0.20
2018,03,25,06,41,-0.20
2018,03,25,06,42,-0.20
2018,03,25,06,43,-0.20
2018,03,25,06,44,-0.20
2018,03,25,06,45,-0.20
2018,03,25,06,46,-0.10
2018,03,25,06,47,-0.10
2018,03,25,06,48,-0.10
2018,03,25,06,49,-0.10
2018,03,25,06,50,0.00
2018,03,25,06,51,0.00
2018,03,25,06,52,0.10
2018,03,25,06,53,0.20
2018,03,25,06,54,0.30
2018,03,25,06,55,0.40
2018,03,25,06,56,0.50
2018,03,25,06,57,0.60
2018,03,25,06,58,0.70
2018,03,25,06,59,0.80
2018,03,25,07,00,1.00
2018,03,25,07,01,1.10
2018,03,25,07,02,1.20
2018,03,25,07,03,1.20
2018,03,25,07,04,1.20
2018,03,25,07,05,1.20
2018,03,25,07,06,1.20
2018,03,25,07,07,1.20
2018,03,25,07,08,1.10
2018,03,25,07,09,1.00
2018,03,25,07,10,0.90
2018,03,25,07,11,0.70
2018,03,25,07,12,0.60
2018,03,25,07,13,0.50
2018,03,25,07,14,0.40
2018,03,25,07,15,0.30
2018,03,25,07,16,0.20
2018,03,25,07,17,0.20
2018,03,25,07,18,0.20
2018,03,25,07,19,0.20
2018,03,25,07,20,0.20
2018,03,25,07,21,0.10
2018,03,25,07,22,0.10
2018,03,25,07,23,0.00
2018,03,25,07,24,0.00
2018,03,25,07,25,-0.10
2018,03,25,07,26,-0.10
2018,03,25,07,27,-0.20
2018,03,25,07,28,-0.20
2018,03,25,07,29,-0.20
2018,03,25,07,30,-0.20
2018,03,25,07,31,-0.20
2018,03,25,07,32,-0.20
2018,03,25,07,33,-0.20
2018,03,25,07,34,-0.20
2018,03,25,07,35,-0.10
2018,03,25,07,36,-0.10
2018,03,25,07,37,-0.10
2018,03,25,07,38,0.00
2018,03,25,07,39,0.00
2018,03,25,07,40,0.10
2018,03,25,07,41,0.10
2018,03,25,07,42,0.10
2018,03,25,07,43,0.10
2018,03,25,07,44,0.10
2018,03,25,07,45,0.20
2018,03,25,07,46,0.20
2018,03,25,07,47,0.20
2018,03,25,07,48,0.20
2018,03,25,07,49,0.20
2018,03,25,07,50,0.20
2018,03,25,07,51,0.20
2018,03,25,07,52,0.20
2018,03,25,07,53,0.20
2018,03,25,07,54,0.20
2018,03,25,07,55,0.30
2018,03,25,07,56,0.30
2018,03,25,07,57,0.30
2018,03,25,07,58,0.40
2018,03,25,07,59,0.40
2018,03,25,08,00,0.50
2018,03,25,08,01,0.50
2018,03,25,08,02,0.60
2018,03,25,08,03,0.60
2018,03,25,08,04,0.80
2018,03,25,08,05,0.90
2018,03,25,08,06,1.20
2018,03,25,08,07,1.50
2018,03,25,08,08,1.80
2018,03,25,08,09,1.90
2018,03,25,08,10,2.00
2018,03,25,08,11,2.10
2018,03,25,08,12,2.30
2018,03,25,08,13,2.60
2018,03,25,08,14,2.70
2018,03,25,08,15,2.90
2018,03,25,08,16,3.10
2018,03,25,08,17,3.30
2018,03,25,08,18,3.50
2018,03,25,08,19,3.60
2018,03,25,08,20,3.70
2018,03,25,08,21,3.80
2018,03,25,08,22,3.90
2018,03,25,08,23,4.00
2018,03,25,08,24,4.10
2018,03,25,08,25,4.20
2018,03,25,08,26,4.20
2018,03,25,08,27,4.40
2018,03,25,08,28,4.50
2018,03,25,08,29,4.60
2018,03,25,08,30,4.60
2018,03,25,08,31,4.60
2018,03,25,08,32,4.70
2018,03,25,08,33,4.80
2018,03,25,08,34,4.80
2018,03,25,08,35,4.80
2018,03,25,08,36,4.90
2018,03,25,08,37,4.90
2018,03,25,08,38,5.00
2018,03,25,08,39,5.00
2018,03,25,08,40,5.10
2018,03,25,08,41,5.10
2018,03,25,08,42,5.20
2018,03,25,08,43,5.20
2018,03,25,08,44,5.20
2018,03,25,08,45,5.20
2018,03,25,08,46,5.30
2018,03,25,08,47,5.30
2018,03,25,08,48,5.40
2018,03,25,08,49,5.40
2018,03,25,08,50,5.50
2018,03,25,08,51,5.50
2018,03,25,08,52,5.60
2018,03,25,08,53,5.70
2018,03,25,08,54,5.60
2018,03,25,08,55,5.50
2018,03,25,08,56,5.50
2018,03,25,08,57,5.50
2018,03,25,08,58,5.50
2018,03,25,08,59,5.50
2018,03,25,09,00,5.50
2018,03,25,09,01,5.50
2018,03,25,09,02,5.50
2018,03,25,09,03,5.50
2018,03,25,09,04,5.50
2018,03,25,09,05,5.40
2018,03,25,09,06,5.40
2018,03,25,09,07,5.40
2018,03,25,09,08,5.30
2018,03,25,09,09,5.30
2018,03,25,09,10,5.30
2018,03,25,09,11,5.20
2018,03,25,09,12,5.20
2018,03,25,09,13,5.20
2018,03,25,09,14,5.20
2018,03,25,09,15,5.20
2018,03,25,09,16,5.20
2018,03,25,09,17,5.20
2018,03,25,09,18,5.20
2018,03,25,09,19,5.20
2018,03,25,09,20,5.20
2018,03,25,09,21,5.20
2018,03,25,09,22,5.30
2018,03,25,09,23,5.30
2018,03,25,09,24,5.30
2018,03,25,09,25,5.40
2018,03,25,09,26,5.40
2018,03,25,09,27,5.40
2018,03,25,09,28,5.50
2018,03,25,09,29,5.50
2018,03,25,09,30,5.50
2018,03,25,09,31,5.60
2018,03,25,09,32,5.60
2018,03,25,09,33,5.60
2018,03,25,09,34,5.70
2018,03,25,09,35,5.70
2018,03,25,09,36,5.80
2018,03,25,09,37,5.80
2018,03,25,09,38,5.80
2018,03,25,09,39,5.90
2018,03,25,09,40,5.90
2018,03,25,09,41,5.90
2018,03,25,09,42,5.90
2018,03,25,09,43,6.00
2018,03,25,09,44,6.10
2018,03,25,09,45,6.10
2018,03,25,09,46,6.10
2018,03,25,09,47,6.00
2018,03,25,09,48,6.00
2018,03,25,09,49,5.90
2018,03,25,09,50,6.00
2018,03,25,09,51,6.00
2018,03,25,09,52,6.00
2018,03,25,09,53,6.00
2018,03,25,09,54,6.10
2018,03,25,09,55,6.10
2018,03,25,09,56,6.20
2018,03,25,09,57,6.20
2018,03,25,09,58,6.20
2018,03,25,09,59,6.20
2018,03,25,10,00,6.20
2018,03,25,10,01,6.20
2018,03,25,10,02,6.10
2018,03,25,10,03,6.10
2018,03,25,10,04,6.10
2018,03,25,10,05,6.10
2018,03,25,10,06,6.10
2018,03,25,10,07,6.10
2018,03,25,10,08,6.10
2018,03,25,10,09,6.10
2018,03,25,10,10,6.10
2018,03,25,10,11,6.10
2018,03,25,10,12,6.10
2018,03,25,10,13,6.10
2018,03,25,10,14,6.10
2018,03,25,10,15,6.20
2018,03,25,10,16,6.20
2018,03,25,10,17,6.20
2018,03,25,10,18,6.20
2018,03,25,10,19,6.20
2018,03,25,10,20,6.30
2018,03,25,10,21,6.30
2018,03,25,10,22,6.30
2018,03,25,10,23,6.40
2018,03,25,10,24,6.50
2018,03,25,10,25,6.50
2018,03,25,10,26,6.60
2018,03,25,10,27,6.70
2018,03,25,10,28,6.70
2018,03,25,10,29,6.70
2018,03,25,10,30,6.80
2018,03,25,10,31,6.90
2018,03,25,10,32,7.00
2018,03,25,10,33,7.20
2018,03,25,10,34,7.20
2018,03,25,10,35,7.20
2018,03,25,10,36,7.20
2018,03,25,10,37,7.20
2018,03,25,10,38,7.30
2018,03,25,10,39,7.40
2018,03,25,10,40,7.50
2018,03,25,10,41,7.60
2018,03,25,10,42,7.60
2018,03,25,10,43,7.60
2018,03,25,10,44,7.60
2018,03,25,10,45,7.60
2018,03,25,10,46,7.80
2018,03,25,10,47,7.90
2018,03,25,10,48,7.90
2018,03,25,10,49,7.90
2018,03,25,10,50,7.90
2018,03,25,10,51,7.90
2018,03,25,10,52,7.90
2018,03,25,10,53,7.80
2018,03,25,10,54,7.70
2018,03,25,10,55,7.60
2018,03,25,10,56,7.70
2018,03,25,10,57,7.70
2018,03,25,10,58,7.70
2018,03,25,10,59,7.80
2018,03,25,11,00,7.80
2018,03,25,11,01,7.90
2018,03,25,11,02,7.90
2018,03,25,11,03,8.00
2018,03,25,11,04,8.10
2018,03,25,11,05,8.20
2018,03,25,11,06,8.20
2018,03,25,11,07,8.20
2018,03,25,11,08,8.10
2018,03,25,11,09,8.00
2018,03,25,11,10,8.00
2018,03,25,11,11,8.00
2018,03,25,11,12,8.10
2018,03,25,11,13,8.10
2018,03,25,11,14,8.20
2018,03,25,11,15,8.20
2018,03,25,11,16,8.20
2018,03,25,11,17,8.30
2018,03,25,11,18,8.20
2018,03,25,11,19,8.30
2018,03,25,11,20,8.40
2018,03,25,11,21,8.40
2018,03,25,11,22,8.40
2018,03,25,11,23,8.40
2018,03,25,11,24,8.40
2018,03,25,11,25,8.40
2018,03,25,11,26,8.40
2018,03,25,11,27,8.60
2018,03,25,11,28,8.70
2018,03,25,11,29,8.70
2018,03,25,11,30,8.70
2018,03,25,11,31,8.70
2018,03,25,11,32,8.60
2018,03,25,11,33,8.60
2018,03,25,11,34,8.50
2018,03,25,11,35,8.40
2018,03,25,11,36,8.40
2018,03,25,11,37,8.40
2018,03,25,11,38,8.50
2018,03,25,11,39,8.50
2018,03,25,11,40,8.60
2018,03,25,11,41,8.70
2018,03,25,11,42,8.80
2018,03,25,11,43,8.90
2018,03,25,11,44,8.90
2018,03,25,11,45,8.90
2018,03,25,11,46,9.10
2018,03,25,11,47,9.10
2018,03,25,11,48,9.10
2018,03,25,11,49,9.10
2018,03,25,11,50,9.10
2018,03,25,11,51,9.10
2018,03,25,11,52,9.00
2018,03,25,11,53,8.90
2018,03,25,11,54,8.80
2018,03,25,11,55,8.80
2018,03,25,11,56,8.80
2018,03,25,11,57,8.70
2018,03,25,11,58,8.70
2018,03,25,11,59,8.60
2018,03,25,12,00,8.50
2018,03,25,12,01,8.50
2018,03,25,12,02,8.40
2018,03,25,12,03,8.30
2018,03,25,12,04,8.20
2018,03,25,12,05,8.20
2018,03,25,12,06,8.30
2018,03,25,12,07,8.20
2018,03,25,12,08,8.20
2018,03,25,12,09,8.10
2018,03,25,12,10,8.10
2018,03,25,12,11,8.10
2018,03,25,12,12,8.10
2018,03,25,12,13,8.10
2018,03,25,12,14,8.20
2018,03,25,12,15,8.30
2018,03,25,12,16,8.40
2018,03,25,12,17,8.50
2018,03,25,12,18,8.60
2018,03,25,12,19,8.70
2018,03,25,12,20,8.80
2018,03,25,12,21,8.90
2018,03,25,12,22,8.90
2018,03,25,12,23,8.80
2018,03,25,12,24,8.80
2018,03,25,12,25,8.80
2018,03,25,12,26,8.90
2018,03,25,12,27,8.90
2018,03,25,12,28,8.90
2018,03,25,12,29,9.00
2018,03,25,12,30,9.00
2018,03,25,12,31,9.10
2018,03,25,12,32,9.10
2018,03,25,12,33,9.10
2018,03,25,12,34,9.00
2018,03,25,12,35,9.00
2018,03,25,12,36,9.00
2018,03,25,12,37,9.00
2018,03,25,12,38,8.90
2018,03,25,12,39,8.90
2018,03,25,12,40,8.80
2018,03,25,12,41,8.80
2018,03,25,12,42,8.80
2018,03,25,12,43,8.80
2018,03,25,12,44,8.90
2018,03,25,12,45,9.00
2018,03,25,12,46,9.00
2018,03,25,12,47,9.10
2018,03,25,12,48,9.20
2018,03,25,12,49,9.20
2018,03,25,12,50,9.00
2018,03,25,12,51,8.90
2018,03,25,12,52,8.80
2018,03,25,12,53,8.80
2018,03,25,12,54,8.70
2018,03,25,12,55,8.70
2018,03,25,12,56,8.70
2018,03,25,12,57,8.80
2018,03,25,12,58,8.80
2018,03,25,12,59,8.80
2018,03,25,13,00,8.90
2018,03,25,13,01,8.80
2018,03,25,13,02,8.90
2018,03,25,13,03,8.90
2018,03,25,13,04,9.00
2018,03,25,13,05,9.00
2018,03,25,13,06,9.10
2018,03,25,13,07,9.10
2018,03,25,13,08,9.20
2018,03,25,13,09,9.20
2018,03,25,13,10,9.20
2018,03,25,13,11,9.20
2018,03,25,13,12,9.20
2018,03,25,13,13,9.20
2018,03,25,13,14,9.20
2018,03,25,13,15,9.20
2018,03,25,13,16,9.30
2018,03,25,13,17,9.20
2018,03,25,13,18,9.20
2018,03,25,13,19,9.10
2018,03,25,13,20,9.00
2018,03,25,13,21,8.90
2018,03,25,13,22,8.80
2018,03,25,13,23,8.80
2018,03,25,13,24,8.80
2018,03,25,13,25,8.80
2018,03,25,13,26,8.80
2018,03,25,13,27,8.70
2018,03,25,13,28,8.60
2018,03,25,13,29,8.40
2018,03,25,13,30,8.40
2018,03,25,13,31,8.30
2018,03,25,13,32,8.30
2018,03,25,13,33,8.30
2018,03,25,13,34,8.30
2018,03,25,13,35,8.30
2018,03,25,13,36,8.30
2018,03,25,13,37,8.30
2018,03,25,13,38,8.30
2018,03,25,13,39,8.30
2018,03,25,13,40,8.30
2018,03,25,13,41,8.40
2018,03,25,13,42,8.50
2018,03,25,13,43,8.70
2018,03,25,13,44,8.80
2018,03,25,13,45,8.80
2018,03,25,13,46,8.70
2018,03,25,13,47,8.50
2018,03,25,13,48,8.40
2018,03,25,13,49,8.20
2018,03,25,13,50,8.10
2018,03,25,13,51,8.10
2018,03,25,13,52,8.20
2018,03,25,13,53,8.20
2018,03,25,13,54,8.20
2018,03,25,13,55,8.10
2018,03,25,13,56,8.10
2018,03,25,13,57,8.10
2018,03,25,13,58,8.10
2018,03,25,13,59,8.20
2018,03,25,14,00,8.20
2018,03,25,14,01,8.10
2018,03,25,14,02,8.10
2018,03,25,14,03,8.00
2018,03,25,14,04,7.90
2018,03,25,14,05,7.90
2018,03,25,14,06,7.90
2018,03,25,14,07,7.80
2018,03,25,14,08,7.80
2018,03,25,14,09,7.80
2018,03,25,14,10,7.80
2018,03,25,14,11,7.90
2018,03,25,14,12,7.90
2018,03,25,14,13,7.90
2018,03,25,14,14,7.90
2018,03,25,14,15,7.90
2018,03,25,14,16,7.80
2018,03,25,14,17,7.80
2018,03,25,14,18,7.80
2018,03,25,14,19,7.80
2018,03,25,14,20,7.80
2018,03,25,14,21,7.70
2018,03,25,14,22,7.70
2018,03,25,14,23,7.70
2018,03,25,14,24,7.70
2018,03,25,14,25,7.80
2018,03,25,14,26,7.80
2018,03,25,14,27,7.70
2018,03,25,14,28,7.70
2018,03,25,14,29,7.70
2018,03,25,14,30,7.70
2018,03,25,14,31,7.60
2018,03,25,14,32,7.60
2018,03,25,14,33,7.60
2018,03,25,14,34,7.60
2018,03,25,14,35,7.60
2018,03,25,14,36,7.70
2018,03,25,14,37,7.60
2018,03,25,14,38,7.60
2018,03,25,14,39,7.60
2018,03,25,14,40,7.50
2018,03,25,14,41,7.50
2018,03,25,14,42,7.40
2018,03,25,14,43,7.40
2018,03,25,14,44,7.40
2018,03,25,14,45,7.40
2018,03,25,14,46,7.40
2018,03,25,14,47,7.30
2018,03,25,14,48,7.40
2018,03,25,14,49,7.40
2018,03,25,14,50,7.50
2018,03,25,14,51,7.60
2018,03,25,14,52,7.60
2018,03,25,14,53,7.70
2018,03,25,14,54,7.80
2018,03,25,14,55,7.80
2018,03,25,14,56,7.90
2018,03,25,14,57,8.00
2018,03,25,14,58,8.00
2018,03,25,14,59,8.10
2018,03,25,15,00,8.20
2018,03,25,15,01,8.30
2018,03,25,15,02,8.30
2018,03,25,15,03,8.40
2018,03,25,15,04,8.50
2018,03,25,15,05,8.60
2018,03,25,15,06,8.60
2018,03,25,15,07,8.60
2018,03,25,15,08,8.60
2018,03,25,15,09,8.60
2018,03,25,15,10,8.60
2018,03,25,15,11,8.60
2018,03,25,15,12,8.60
2018,03,25,15,13,8.70
2018,03,25,15,14,8.70
2018,03,25,15,15,8.70
2018,03,25,15,16,8.70
2018,03,25,15,17,8.70
2018,03,25,15,18,8.60
2018,03,25,15,19,8.60
2018,03,25,15,20,8.60
2018,03,25,15,21,8.70
2018,03,25,15,22,8.70
2018,03,25,15,23,8.80
2018,03,25,15,24,8.80
2018,03,25,15,25,8.70
2018,03,25,15,26,8.70
2018,03,25,15,27,8.70
2018,03,25,15,28,8.60
2018,03,25,15,29,8.60
2018,03,25,15,30,8.60
2018,03,25,15,31,8.60
2018,03,25,15,32,8.60
2018,03,25,15,33,8.60
2018,03,25,15,34,8.60
2018,03,25,15,35,8.60
2018,03,25,15,36,8.60
2018,03,25,15,37,8.70
2018,03,25,15,38,8.70
2018,03,25,15,39,8.70
2018,03,25,15,40,8.70
2018,03,25,15,41,8.70
2018,03,25,15,42,8.70
2018,03,25,15,43,8.80
2018,03,25,15,44,8.80
2018,03,25,15,45,8.90
2018,03,25,15,46,8.90
2018,03,25,15,47,8.90
2018,03,25,15,48,8.90
2018,03,25,15,49,9.00
2018,03,25,15,50,9.00
2018,03,25,15,51,9.00
2018,03,25,15,52,8.90
2018,03,25,15,53,8.80
2018,03,25,15,54,8.80
2018,03,25,15,55,8.80
2018,03,25,15,56,8.70
2018,03,25,15,57,8.60
2018,03,25,15,58,8.60
2018,03,25,15,59,8.50
2018,03,25,16,00,8.50
2018,03,25,16,01,8.40
2018,03,25,16,02,8.40
2018,03,25,16,03,8.40
2018,03,25,16,04,8.40
2018,03,25,16,05,8.40
2018,03,25,16,06,8.50
2018,03,25,16,07,8.40
2018,03,25,16,08,8.40
2018,03,25,16,09,8.30
2018,03,25,16,10,8.30
2018,03,25,16,11,8.20
2018,03,25,16,12,8.30
2018,03,25,16,13,8.30
2018,03,25,16,14,8.40
2018,03,25,16,15,8.40
2018,03,25,16,16,8.40
2018,03,25,16,17,8.30
2018,03,25,16,18,8.20
2018,03,25,16,19,8.10
2018,03,25,16,20,8.10
2018,03,25,16,21,8.10
2018,03,25,16,22,8.20
2018,03,25,16,23,8.20
2018,03,25,16,24,8.30
2018,03,25,16,25,8.40
2018,03,25,16,26,8.40
2018,03,25,16,27,8.40
2018,03,25,16,28,8.30
2018,03,25,16,29,8.30
2018,03,25,16,30,8.30
2018,03,25,16,31,8.20
2018,03,25,16,32,8.30
2018,03,25,16,33,8.40
2018,03,25,16,34,8.40
2018,03,25,16,35,8.40
2018,03,25,16,36,8.40
2018,03,25,16,37,8.40
2018,03,25,16,38,8.40
2018,03,25,16,39,8.40
2018,03,25,16,40,8.50
2018,03,25,16,41,8.50
2018,03,25,16,42,8.40
2018,03,25,16,43,8.40
2018,03,25,16,44,8.30
2018,03,25,16,45,8.30
2018,03,25,16,46,8.30
2018,03,25,16,47,8.30
2018,03,25,16,48,8.30
2018,03,25,16,49,8.30
2018,03,25,16,50,8.30
2018,03,25,16,51,8.30
2018,03,25,16,52,8.30
2018,03,25,16,53,8.40
2018,03,25,16,54,8.40
2018,03,25,16,55,8.50
2018,03,25,16,56,8.50
2018,03,25,16,57,8.50
2018,03,25,16,58,8.40
2018,03,25,16,59,8.40
2018,03,25,17,00,8.40
2018,03,25,17,01,8.40
2018,03,25,17,02,8.50
2018,03,25,17,03,8.60
2018,03,25,17,04,8.60
2018,03,25,17,05,8.70
2018,03,25,17,06,8.70
2018,03,25,17,07,8.60
2018,03,25,17,08,8.60
2018,03,25,17,09,8.50
2018,03,25,17,10,8.50
2018,03,25,17,11,8.50
2018,03,25,17,12,8.50
2018,03,25,17,13,8.60
2018,03,25,17,14,8.70
2018,03,25,17,15,8.80
2018,03,25,17,16,8.80
2018,03,25,17,17,8.80
2018,03,25,17,18,8.80
2018,03,25,17,19,8.70
2018,03,25,17,20,8.60
2018,03,25,17,21,8.60
2018,03,25,17,22,8.60
2018,03,25,17,23,8.50
2018,03,25,17,24,8.50
2018,03,25,17,25,8.40
2018,03,25,17,26,8.40
2018,03,25,17,27,8.30
2018,03,25,17,28,8.30
2018,03,25,17,29,8.30
2018,03,25,17,30,8.30
2018,03,25,17,31,8.30
2018,03,25,17,32,8.30
2018,03,25,17,33,8.40
2018,03,25,17,34,8.40
2018,03,25,17,35,8.40
2018,03,25,17,36,8.40
2018,03,25,17,37,8.40
2018,03,25,17,38,8.50
2018,03,25,17,39,8.50
2018,03,25,17,40,8.50
2018,03,25,17,41,8.40
2018,03,25,17,42,8.40
2018,03,25,17,43,8.40
2018,03,25,17,44,8.40
2018,03,25,17,45,8.40
2018,03,25,17,46,8.40
2018,03,25,17,47,8.30
2018,03,25,17,48,8.30
2018,03,25,17,49,8.30
2018,03,25,17,50,8.30
2018,03,25,17,51,8.40
2018,03,25,17,52,8.40
2018,03,25,17,53,8.40
2018,03,25,17,54,8.40
2018,03,25,17,55,8.40
2018,03,25,17,56,8.40
2018,03,25,17,57,8.40